FW2504 Weather Reports


Display with metric or nautical units.
time (UTC)temp
F
wind
direction
speed
MPH
gust
MPH
rain 1hr
in
rain 24hr
in
rain mn
in
humidity
%
barometer
mb
20260508094532 47 111 1.0 4.0 0.00 0.00 0.00 68 1015.6
20260508091531 48 266 2.0 8.0 0.00 0.00 0.00 65 1015.6
20260508090105 48 212 1.0 6.0 0.00 0.00 0.00 62 1015.4
20260508084537 50 170 0.0 4.0 0.00 0.00 0.00 58 1015.6
20260508081535 51 292 3.0 7.0 0.00 0.00 0.00 54 1015.7
20260508074532 55 294 3.0 7.0 0.00 0.00 0.00 47 1015.9
20260508070052 58 270 6.0 13.0 0.00 0.00 0.00 44 1016.0
20260508064533 58 263 7.0 13.0 0.00 0.00 0.00 44 1016.0
20260508063030 59 268 7.0 14.0 0.00 0.00 0.00 44 1016.0
20260508061649 59 276 7.0 12.0 0.00 0.00 0.00 43 1016.0
20260508060030 60 276 6.0 12.0 0.00 0.00 0.00 42 1016.1
20260508054532 61 279 7.0 15.0 0.00 0.00 0.00 41 1016.1
20260508053032 61 277 8.0 18.0 0.00 0.00 0.00 41 1016.2
20260508051529 61 276 9.0 19.0 0.00 0.00 0.00 42 1016.1
20260508050030 61 278 9.0 18.0 0.00 0.00 0.00 42 1016.1
20260508043030 61 262 9.0 16.0 0.00 0.00 0.00 42 1016.1
20260508041531 62 266 8.0 15.0 0.00 0.00 0.00 41 1016.0
20260508040031 62 267 8.0 15.0 0.00 0.00 0.00 40 1015.9
20260508034533 62 271 8.0 16.0 0.00 0.00 0.00 38 1015.7
20260508033029 62 281 7.0 12.0 0.00 0.00 0.00 35 1015.6
20260508031533 63 282 6.0 12.0 0.00 0.00 0.00 32 1015.6
20260508030031 64 288 8.0 16.0 0.00 0.00 0.00 30 1015.6
20260508023030 66 287 10.0 17.0 0.00 0.00 0.00 28 1015.6
20260508021529 66 286 8.0 14.0 0.00 0.00 0.00 28 1015.5
20260508020030 68 289 9.0 18.0 0.00 0.00 0.00 26 1015.6
20260508014529 69 286 10.0 20.0 0.00 0.00 0.00 25 1015.6
20260508013032 70 289 10.0 19.0 0.00 0.00 0.00 25 1015.7
20260508011606 69 287 10.0 19.0 0.00 0.00 0.00 25 1015.9
20260508010036 69 289 10.0 19.0 0.00 0.00 0.00 25 1015.9
20260508003034 69 284 11.0 20.0 0.00 0.00 0.00 24 1015.8
20260508001650 71 284 11.0 24.0 0.00 0.00 0.00 22 1015.9
20260508000031 72 285 11.0 24.0 0.00 0.00 0.00 22 1015.9
20260507234530 72 285 10.0 21.0 0.00 0.00 0.00 22 1016.0
20260507231529 71 283 12.0 26.0 0.00 0.00 0.00 23 1015.9
20260507224529 72 286 13.0 25.0 0.00 0.00 0.00 27 1016.1
20260507223030 72 283 13.0 25.0 0.00 0.00 0.00 29 1016.2
20260507221608 72 287 11.0 22.0 0.00 0.00 0.00 31 1016.4
20260507220033 72 289 12.0 22.0 0.00 0.00 0.00 32 1016.6
20260507213149 70 281 13.0 23.0 0.00 0.00 0.00 36 1016.8
20260507210031 70 284 15.0 25.0 0.00 0.00 0.00 37 1016.7
20260507204534 69 285 13.0 24.0 0.00 0.00 0.00 38 1016.8
20260507203032 68 287 14.0 31.0 0.00 0.00 0.00 39 1016.9
20260507201531 68 284 13.0 26.0 0.00 0.00 0.00 40 1017.0
20260507200033 67 287 13.0 23.0 0.00 0.00 0.00 41 1017.2
20260507194533 66 281 12.0 26.0 0.00 0.00 0.00 44 1017.3
20260507193148 65 279 13.0 23.0 0.00 0.00 0.00 47 1017.5
20260507191530 63 288 13.0 24.0 0.00 0.00 0.00 49 1017.7
20260507190032 63 286 13.0 22.0 0.00 0.00 0.00 51 1018.1
20260507184534 63 281 8.0 17.0 0.00 0.00 0.00 53 1018.7
20260507174649 61 273 9.0 20.0 0.00 0.00 0.00 58 1018.7
20260507173029 60 279 9.0 20.0 0.00 0.00 0.00 59 1018.8
20260507171534 60 273 12.0 22.0 0.00 0.00 0.00 60 1018.9
20260507170034 58 278 12.0 24.0 0.00 0.00 0.00 63 1018.7
20260507163031 57 279 15.0 25.0 0.00 0.00 0.00 66 1018.8
20260507161643 56 282 13.0 25.0 0.00 0.00 0.00 69 1018.8
20260507160035 55 281 13.0 25.0 0.00 0.00 0.00 70 1018.8
20260507154528 55 277 13.0 26.0 0.00 0.00 0.00 72 1018.8
20260507153031 54 282 13.0 23.0 0.00 0.00 0.00 73 1018.9
20260507151534 54 281 13.0 23.0 0.00 0.00 0.00 74 1019.0
20260507143035 52 288 10.0 21.0 0.00 0.00 0.00 79 1018.9
20260507141530 52 284 9.0 18.0 0.00 0.00 0.00 80 1018.8
20260507134538 51 289 9.0 18.0 0.00 0.00 0.00 81 1018.4
20260507133030 51 288 8.0 21.0 0.00 0.00 0.00 81 1018.2
20260507131536 51 290 9.0 20.0 0.00 0.00 0.00 81 1018.1
20260507130108 51 286 9.0 20.0 0.00 0.00 0.00 80 1018.0
20260507123034 52 273 8.0 16.0 0.00 0.00 0.00 79 1018.1
20260507121530 53 273 9.0 18.0 0.00 0.00 0.00 79 1018.2
20260507120207 53 274 10.0 23.0 0.00 0.00 0.00 79 1018.2
20260507111535 53 265 10.0 22.0 0.00 0.00 0.00 79 1018.0
20260507104532 54 260 7.0 17.0 0.00 0.00 0.00 78 1018.0
20260507103037 54 270 10.0 20.0 0.00 0.00 0.00 78 1018.1